• In Belarus
  • List of Countries
  • For 7 days
  • Water Temperature
  • Weather Map
  • Weather Widgets
  • user-avatar
    Login

    Hourly Weather Bregenz

    Today, 25 May, Monday

    Time Temperature Precipitation Wind Pressure Humidity
    00:00 +3°C° 0 mm 0 mps 654 mmHg 89%
    01:00 +2°C° 0 mm 0 mps 654 mmHg 90%
    02:00 +2°C° 0 mm 0 mps 654 mmHg 91%
    03:00 +2°C° 0 mm 0 mps 654 mmHg 91%
    04:00 +2°C° 0 mm 0 mps 654 mmHg 91%
    05:00 +3°C° 0 mm 0 mps 654 mmHg 87%
    06:00 +5°C° 0 mm 0 mps 654 mmHg 83%
    07:00 +6°C° 0 mm 0 mps 655 mmHg 79%
    08:00 +9°C° 0 mm 1 mps 655 mmHg 72%
    09:00 +10°C° 0 mm 1 mps 656 mmHg 66%
    10:00 +12°C° 0 mm 2 mps 656 mmHg 59%
    11:00 +12°C° 0 mm 2 mps 656 mmHg 57%
    12:00 +13°C° 0 mm 2 mps 656 mmHg 55%
    13:00 +14°C° 0 mm 2 mps 655 mmHg 52%
    14:00 +14°C° 0 mm 2 mps 655 mmHg 53%
    15:00 +14°C° 0 mm 2 mps 655 mmHg 54%
    16:00 +14°C° 0 mm 2 mps 655 mmHg 54%
    17:00 +13°C° 0 mm 2 mps 655 mmHg 62%
    18:00 +12°C° 0 mm 2 mps 655 mmHg 71%
    19:00 +10°C° 0 mm 2 mps 655 mmHg 79%
    20:00 +9°C° 0.1 mm 1 mps 655 mmHg 84%
    21:00 +7°C° 0.1 mm 1 mps 654 mmHg 89%
    22:00 +6°C° 0.1 mm 1 mps 654 mmHg 93%
    23:00 +5°C° 0 mm 1 mps 654 mmHg 93%

    Tomorrow, 26 May, Tuesday

    Time Temperature Precipitation Wind Pressure Humidity
    00:00 +5°C° 0 mm 1 mps 654 mmHg 93%
    01:00 +4°C° 0 mm 1 mps 654 mmHg 94%
    02:00 +4°C° 0 mm 1 mps 654 mmHg 94%
    03:00 +4°C° 0 mm 1 mps 654 mmHg 94%
    04:00 +3°C° 0 mm 1 mps 653 mmHg 94%
    05:00 +4°C° 0 mm 1 mps 654 mmHg 90%
    06:00 +5°C° 0 mm 0 mps 654 mmHg 87%
    07:00 +6°C° 0 mm 0 mps 654 mmHg 84%
    08:00 +9°C° 0 mm 1 mps 655 mmHg 75%
    09:00 +9°C° 0 mm 2 mps 655 mmHg 66%
    10:00 +12°C° 0 mm 2 mps 656 mmHg 58%
    11:00 +11°C° 0 mm 3 mps 656 mmHg 55%
    12:00 +12°C° 0 mm 3 mps 656 mmHg 53%
    13:00 +13°C° 0 mm 3 mps 656 mmHg 51%
    14:00 +13°C° 0 mm 3 mps 656 mmHg 53%
    15:00 +13°C° 0 mm 3 mps 656 mmHg 55%
    16:00 +13°C° 0 mm 4 mps 655 mmHg 57%
    17:00 +12°C° 0 mm 3 mps 655 mmHg 63%
    18:00 +11°C° 0 mm 3 mps 655 mmHg 70%
    19:00 +9°C° 0 mm 2 mps 655 mmHg 76%
    20:00 +8°C° 0 mm 2 mps 655 mmHg 82%
    21:00 +7°C° 0 mm 1 mps 654 mmHg 87%
    22:00 +5°C° 0 mm 1 mps 654 mmHg 93%
    23:00 +5°C° 0 mm 1 mps 654 mmHg 93%

    Day after tomorrow, 27 May, Wednesday

    Time Temperature Precipitation Wind Pressure Humidity
    00:00 +4°C° 0 mm 1 mps 654 mmHg 93%
    01:00 +4°C° 0 mm 1 mps 654 mmHg 93%
    02:00 +4°C° 0 mm 1 mps 653 mmHg 93%
    03:00 +3°C° 0 mm 1 mps 653 mmHg 93%
    04:00 +3°C° 0 mm 1 mps 653 mmHg 92%
    05:00 +4°C° 0 mm 1 mps 653 mmHg 87%
    06:00 +6°C° 0 mm 1 mps 654 mmHg 83%
    07:00 +7°C° 0 mm 0 mps 654 mmHg 78%
    08:00 +9°C° 0 mm 1 mps 654 mmHg 69%
    09:00 +11°C° 0 mm 1 mps 655 mmHg 59%
    10:00 +13°C° 0 mm 2 mps 655 mmHg 50%
    11:00 +13°C° 0 mm 3 mps 655 mmHg 46%
    12:00 +14°C° 0 mm 3 mps 656 mmHg 43%
    13:00 +15°C° 0 mm 4 mps 656 mmHg 39%
    14:00 +15°C° 0 mm 4 mps 656 mmHg 41%
    15:00 +15°C° 0 mm 4 mps 655 mmHg 43%
    16:00 +15°C° 0 mm 4 mps 655 mmHg 46%
    17:00 +13°C° 0 mm 3 mps 655 mmHg 54%
    18:00 +13°C° 0 mm 2 mps 654 mmHg 62%
    19:00 +12°C° 0 mm 2 mps 654 mmHg 71%
    20:00 +10°C° 0 mm 1 mps 654 mmHg 76%
    21:00 +8°C° 0 mm 1 mps 653 mmHg 81%
    22:00 +6°C° 0 mm 1 mps 653 mmHg 87%
    23:00 +6°C° 0 mm 1 mps 652 mmHg 87%

    28 May, Thursday

    Time Temperature Precipitation Wind Pressure Humidity
    00:00 +5°C° 0 mm 1 mps 652 mmHg 88%
    01:00 +5°C° 0 mm 1 mps 652 mmHg 88%
    02:00 +5°C° 0 mm 1 mps 652 mmHg 88%
    03:00 +4°C° 0 mm 1 mps 651 mmHg 88%
    04:00 +3°C° 0 mm 0 mps 651 mmHg 89%
    05:00 +5°C° 0 mm 0 mps 651 mmHg 84%
    06:00 +6°C° 0 mm 0 mps 652 mmHg 79%
    07:00 +8°C° 0 mm 0 mps 652 mmHg 74%
    08:00 +10°C° 0 mm 1 mps 652 mmHg 68%
    09:00 +12°C° 0 mm 1 mps 652 mmHg 62%
    10:00 +13°C° 0 mm 2 mps 653 mmHg 56%
    11:00 +14°C° 0 mm 2 mps 653 mmHg 55%
    12:00 +15°C° 0 mm 2 mps 653 mmHg 54%
    13:00 +14°C° 0 mm 3 mps 652 mmHg 53%
    14:00 +14°C° 0 mm 3 mps 652 mmHg 56%
    15:00 +14°C° 0 mm 3 mps 652 mmHg 59%
    16:00 +14°C° 0 mm 3 mps 651 mmHg 61%
    17:00 +13°C° 0.1 mm 3 mps 651 mmHg 68%
    18:00 +13°C° 0.1 mm 2 mps 651 mmHg 74%
    19:00 +12°C° 0.1 mm 2 mps 650 mmHg 81%
    20:00 +9°C° 0 mm 2 mps 650 mmHg 85%
    21:00 +9°C° 0 mm 1 mps 650 mmHg 90%
    22:00 +7°C° 0 mm 1 mps 649 mmHg 94%
    23:00 +7°C° 0 mm 1 mps 649 mmHg 94%

    29 May, Friday

    Time Temperature Precipitation Wind Pressure Humidity
    00:00 +6°C° 0 mm 1 mps 649 mmHg 94%
    01:00 +6°C° 0 mm 1 mps 649 mmHg 94%
    02:00 +5°C° 0 mm 1 mps 648 mmHg 94%
    03:00 +5°C° 0 mm 1 mps 648 mmHg 94%
    04:00 +3°C° 0 mm 0 mps 648 mmHg 94%
    05:00 +5°C° 0 mm 0 mps 648 mmHg 91%
    06:00 +6°C° 0 mm 0 mps 648 mmHg 88%
    07:00 +8°C° 0 mm 1 mps 649 mmHg 84%
    08:00 +10°C° 0 mm 1 mps 649 mmHg 78%
    09:00 +11°C° 0 mm 1 mps 649 mmHg 72%
    10:00 +13°C° 0 mm 2 mps 649 mmHg 66%
    11:00 +14°C° 0 mm 2 mps 650 mmHg 62%
    12:00 +15°C° 0 mm 2 mps 650 mmHg 58%
    13:00 +16°C° 0 mm 3 mps 650 mmHg 54%
    14:00 +16°C° 0 mm 3 mps 650 mmHg 54%
    15:00 +16°C° 0 mm 3 mps 649 mmHg 55%
    16:00 +14°C° 0 mm 3 mps 649 mmHg 56%
    17:00 +13°C° 0 mm 3 mps 649 mmHg 63%
    18:00 +13°C° 0 mm 2 mps 649 mmHg 70%
    19:00 +12°C° 0 mm 2 mps 649 mmHg 76%
    20:00 +10°C° 0 mm 1 mps 648 mmHg 82%
    21:00 +8°C° 0 mm 1 mps 648 mmHg 87%
    22:00 +5°C° 0 mm 0 mps 647 mmHg 92%
    23:00 +6°C° 0 mm 1 mps 647 mmHg 92%

    30 May, Saturday

    Time Temperature Precipitation Wind Pressure Humidity
    00:00 +5°C° 0 mm 1 mps 647 mmHg 93%
    01:00 +5°C° 0 mm 1 mps 647 mmHg 93%
    02:00 +5°C° 0 mm 1 mps 647 mmHg 93%
    03:00 +5°C° 0 mm 1 mps 647 mmHg 93%
    04:00 +4°C° 0 mm 1 mps 646 mmHg 93%
    05:00 +5°C° 0 mm 0 mps 647 mmHg 89%
    06:00 +6°C° 0 mm 0 mps 647 mmHg 84%
    07:00 +8°C° 0 mm 0 mps 648 mmHg 79%
    08:00 +11°C° 0 mm 1 mps 648 mmHg 72%
    09:00 +13°C° 0 mm 1 mps 649 mmHg 65%
    10:00 +14°C° 0 mm 1 mps 649 mmHg 57%
    11:00 +15°C° 0 mm 2 mps 649 mmHg 54%
    12:00 +16°C° 0 mm 2 mps 649 mmHg 50%
    13:00 +17°C° 0 mm 2 mps 649 mmHg 47%
    14:00 +17°C° 0 mm 2 mps 649 mmHg 48%
    15:00 +16°C° 0 mm 2 mps 649 mmHg 50%
    16:00 +16°C° 0 mm 2 mps 649 mmHg 52%
    17:00 +15°C° 0 mm 2 mps 649 mmHg 60%
    18:00 +14°C° 0 mm 2 mps 648 mmHg 68%
    19:00 +12°C° 0 mm 1 mps 648 mmHg 76%
    20:00 +11°C° 0 mm 1 mps 648 mmHg 81%
    21:00 +9°C° 0 mm 1 mps 647 mmHg 86%
    22:00 +7°C° 0 mm 1 mps 647 mmHg 90%
    23:00 +7°C° 0 mm 1 mps 647 mmHg 90%
    Show more